TimeCST,TemperatureF,Dew PointF,Humidity,Sea Level PressureIn,VisibilityMPH,Wind Direction,Wind SpeedMPH,Gust SpeedMPH,PrecipitationIn,Events,Conditions,WindDirDegrees,DateUTC
12:54 AM,7.0,1.9,80,30.13,10.0,NW,11.5,-,N/A,,Scattered Clouds,320,2014-03-01 06:54:00
1:54 AM,8.1,1.0,73,30.14,10.0,NNW,11.5,-,N/A,,Scattered Clouds,340,2014-03-01 07:54:00
2:54 AM,5.0,-2.0,73,30.16,10.0,NNW,11.5,-,N/A,,Partly Cloudy,330,2014-03-01 08:54:00
3:54 AM,5.0,-4.0,66,30.18,10.0,North,11.5,-,N/A,,Overcast,350,2014-03-01 09:54:00
4:54 AM,3.0,-6.0,66,30.20,10.0,NNW,15.0,-,N/A,,Partly Cloudy,340,2014-03-01 10:54:00
5:54 AM,-0.0,-8.0,69,30.25,10.0,NNW,9.2,-,N/A,,Partly Cloudy,340,2014-03-01 11:54:00
6:54 AM,1.0,-7.1,69,30.30,10.0,NNW,10.4,-,N/A,,Clear,330,2014-03-01 12:54:00
7:54 AM,1.0,-6.0,72,30.31,10.0,NNW,12.7,-,N/A,,Overcast,330,2014-03-01 13:54:00
8:54 AM,1.9,-6.0,69,30.33,10.0,NW,10.4,-,N/A,,Overcast,320,2014-03-01 14:54:00
9:54 AM,3.0,-6.0,66,30.34,10.0,NNW,11.5,-,N/A,,Mostly Cloudy,330,2014-03-01 15:54:00
10:54 AM,3.9,-7.1,60,30.34,10.0,NW,9.2,-,N/A,,Overcast,310,2014-03-01 16:54:00
11:54 AM,3.9,-6.0,64,30.36,10.0,NW,11.5,-,N/A,,Overcast,310,2014-03-01 17:54:00
12:54 PM,3.0,-5.1,69,30.35,6.0,NW,12.7,-,0.00,,Haze,310,2014-03-01 18:54:00
1:51 PM,3.2,-4.0,72,30.26,2.5,NW,12.7,-,0.00,Snow,Light Snow,310,2014-03-01 19:51:00
1:54 PM,3.9,-4.0,70,30.36,2.5,WNW,10.4,-,0.00,Snow,Light Snow,300,2014-03-01 19:54:00
2:12 PM,3.9,-5.1,66,30.26,4.0,WNW,13.8,-,0.00,Snow,Light Snow,300,2014-03-01 20:12:00
2:54 PM,3.9,-7.1,60,30.37,10.0,WNW,10.4,-,0.00,,Scattered Clouds,290,2014-03-01 20:54:00
3:54 PM,3.0,-9.0,57,30.37,10.0,NW,15.0,-,N/A,,Overcast,310,2014-03-01 21:54:00
4:54 PM,1.9,-9.0,60,30.38,10.0,NW,16.1,-,N/A,,Overcast,310,2014-03-01 22:54:00
5:54 PM,1.9,-9.9,58,30.39,10.0,NW,12.7,-,N/A,,Mostly Cloudy,310,2014-03-01 23:54:00
6:54 PM,1.0,-9.9,60,30.42,10.0,NW,15.0,-,N/A,,Scattered Clouds,310,2014-03-02 00:54:00
7:54 PM,-0.0,-11.0,60,30.43,10.0,WNW,16.1,-,N/A,,Clear,300,2014-03-02 01:54:00
8:54 PM,-0.0,-11.9,57,30.43,10.0,WNW,13.8,-,N/A,,Overcast,300,2014-03-02 02:54:00
9:54 PM,-0.9,-13.0,57,30.43,10.0,NW,16.1,-,N/A,,Overcast,320,2014-03-02 03:54:00
10:54 PM,-2.0,-15.0,54,30.45,10.0,NW,12.7,-,N/A,,Overcast,320,2014-03-02 04:54:00
11:54 PM,-2.9,-16.1,54,30.44,10.0,NW,11.5,-,N/A,,Overcast,320,2014-03-02 05:54:00